Kokomo, IN

12:32 PM EDT on May 26, 2017 (GMT -0400)
Kokomo Municipal

Weather History for KOKK - March, 2013

Change the Weather History Date:

Wednesday, March 20, 2013

  Actual Average (KGUS) Record (KGUS)
Temperature  
Mean Temperature 26 °F -  
Max Temperature 30 °F 46 °F 83 °F (2012)
Min Temperature 21 °F 30 °F 20 °F (2009)
Degree Days  
Heating Degree Days 40    
Moisture  
Dew Point 13 °F    
Average Humidity 60    
Maximum Humidity 74    
Minimum Humidity 47    
Precipitation  
Precipitation 0.00 in - - ()
Sea Level Pressure  
Sea Level Pressure 30.02 in    
Wind  
Wind Speed 17 mph (WNW)    
Max Wind Speed 25 mph    
Max Gust Speed 33 mph    
Visibility 10 miles    
Events      
Averages and records for this station are not official NWS values.
T = Trace of Precipitation, MM = Missing Value Source: NWS Daily Summary

Daily Weather History Graph

Daily Weather History Graph

Search for Another Location

Airport or City:

Trip Planner

Search our weather history database for the weather conditions in past years. The results will help you decide how hot, cold, wet, or windy it might be!

Date:

Astronomy

Mar. 20, 2013 Rise Set
Actual Time 6:47 AM CDT 6:56 PM CDT
Civil Twilight 6:20 AM CDT 7:23 PM CDT
Nautical Twilight 5:48 AM CDT 7:55 PM CDT
Astronomical Twilight 5:15 AM CDT 8:28 PM CDT
Moon 12:30 PM CDT (3/20) 2:27 AM CDT (3/20)
Length of Visible Light 13h 03m
Length of Day
12h 09m
First Quarter, 59% of the Moon is Illuminated
Mar 20
First Quarter
Mar 27
Full
Apr 2
Last Quarter
Apr 10
New
Apr 18
First Quarter

Hourly Weather History & Observations

Time (CDT) Temp. Windchill Dew Point Humidity Pressure Visibility Wind Dir Wind Speed Gust Speed Precip Events Conditions
12:15 AM 30.2 °F 17.8 °F 15.8 °F 55% 30.06 in 10.0 mi WNW 19.6 mph 24.2 mph N/A   Clear
12:35 AM 30.2 °F 18.5 °F 15.8 °F 55% 30.06 in 10.0 mi WNW 17.3 mph 23.0 mph N/A   Clear
12:55 AM 28.4 °F 16.2 °F 17.6 °F 64% 30.06 in 10.0 mi WNW 17.3 mph 24.2 mph N/A   Clear
1:15 AM 28.4 °F 16.2 °F 17.6 °F 64% 30.05 in 10.0 mi WNW 17.3 mph 24.2 mph N/A   Clear
1:35 AM 28.4 °F 17.0 °F 17.6 °F 64% 30.05 in 10.0 mi WNW 15.0 mph - N/A   Clear
1:55 AM 28.4 °F 18.0 °F 17.6 °F 64% 30.04 in 10.0 mi WNW 12.7 mph - N/A   Clear
2:15 AM 28.4 °F 19.1 °F 17.6 °F 64% 30.03 in 10.0 mi West 10.4 mph - N/A   Clear
2:35 AM 26.6 °F 16.8 °F 15.8 °F 64% 30.02 in 10.0 mi West 10.4 mph - N/A   Clear
2:55 AM 26.6 °F 16.8 °F 17.6 °F 69% 30.02 in 10.0 mi West 10.4 mph - N/A   Clear
3:15 AM 26.6 °F 16.2 °F 15.8 °F 64% 30.02 in 10.0 mi West 11.5 mph - N/A   Clear
3:35 AM 26.6 °F 15.7 °F 17.6 °F 69% 30.01 in 10.0 mi West 12.7 mph - N/A   Clear
3:55 AM 26.6 °F 15.2 °F 15.8 °F 64% 30.01 in 10.0 mi West 13.8 mph - N/A   Clear
4:15 AM 26.6 °F 14.7 °F 15.8 °F 64% 30.01 in 10.0 mi West 15.0 mph - N/A   Clear
4:35 AM 26.6 °F 14.3 °F 17.6 °F 69% 30.00 in 10.0 mi West 16.1 mph - N/A   Clear
4:55 AM 26.6 °F 15.7 °F 17.6 °F 69% 30.00 in 10.0 mi West 12.7 mph - N/A   Partly Cloudy
5:15 AM 26.6 °F 15.2 °F 17.6 °F 69% 30.00 in 10.0 mi West 13.8 mph - N/A   Clear
5:35 AM 26.6 °F 15.2 °F 17.6 °F 69% 30.00 in 10.0 mi West 13.8 mph - N/A   Mostly Cloudy
5:55 AM 24.8 °F 11.9 °F 17.6 °F 74% 30.00 in 10.0 mi West 16.1 mph - N/A   Partly Cloudy
6:15 AM 24.8 °F 12.4 °F 17.6 °F 74% 30.01 in 10.0 mi West 15.0 mph - N/A   Clear
6:35 AM 24.8 °F 11.9 °F 17.6 °F 74% 30.01 in 10.0 mi WNW 16.1 mph - N/A   Partly Cloudy
6:55 AM 24.8 °F 12.9 °F 17.6 °F 74% 30.01 in 10.0 mi West 13.8 mph - N/A   Clear
7:15 AM 24.8 °F 11.5 °F 17.6 °F 74% 30.02 in 10.0 mi West 17.3 mph - N/A   Clear
7:35 AM 24.8 °F 10.7 °F 17.6 °F 74% 30.02 in 10.0 mi WNW 19.6 mph - N/A   Clear
7:55 AM 24.8 °F 10.7 °F 17.6 °F 74% 30.03 in 10.0 mi WNW 19.6 mph - N/A   Scattered Clouds
8:15 AM 24.8 °F 10.3 °F 17.6 °F 74% 30.03 in 10.0 mi WNW 20.7 mph 25.3 mph N/A   Overcast
8:35 AM 24.8 °F 11.5 °F 14.0 °F 64% 30.03 in 10.0 mi WNW 17.3 mph - N/A   Mostly Cloudy
8:55 AM 24.8 °F 11.9 °F 14.0 °F 64% 30.04 in 10.0 mi WNW 16.1 mph 25.3 mph N/A   Scattered Clouds
9:15 AM 24.8 °F 11.1 °F 12.2 °F 59% 30.04 in 10.0 mi WNW 18.4 mph 24.2 mph N/A   Scattered Clouds
9:35 AM 26.6 °F 13.1 °F 12.2 °F 55% 30.03 in 10.0 mi NW 19.6 mph - N/A   Clear
9:55 AM 24.8 °F 11.1 °F 12.2 °F 59% 30.03 in 10.0 mi WNW 18.4 mph 26.5 mph N/A   Partly Cloudy
10:15 AM 26.6 °F 13.1 °F 10.4 °F 51% 30.04 in 10.0 mi WNW 19.6 mph 25.3 mph N/A   Clear
10:55 AM 26.6 °F 12.7 °F 12.2 °F 55% 30.04 in 10.0 mi WNW 20.7 mph 26.5 mph N/A   Clear
11:15 AM 26.6 °F 12.7 °F 12.2 °F 55% 30.04 in 10.0 mi WNW 20.7 mph 28.8 mph N/A   Partly Cloudy
11:35 AM 26.6 °F 13.1 °F 10.4 °F 51% 30.04 in 10.0 mi West 19.6 mph 27.6 mph N/A   Partly Cloudy
11:55 AM 26.6 °F 13.4 °F 14.0 °F 59% 30.03 in 10.0 mi West 18.4 mph 25.3 mph N/A   Scattered Clouds
12:15 PM 26.6 °F 12.4 °F 14.0 °F 59% 30.03 in 10.0 mi West 21.9 mph 29.9 mph N/A   Scattered Clouds
12:35 PM 26.6 °F 13.4 °F 12.2 °F 55% 30.03 in 10.0 mi West 18.4 mph 28.8 mph N/A   Scattered Clouds
12:55 PM 28.4 °F 15.4 °F 12.2 °F 51% 30.02 in 10.0 mi West 19.6 mph 28.8 mph N/A   Partly Cloudy
1:15 PM 28.4 °F 14.4 °F 12.2 °F 51% 30.02 in 10.0 mi West 23.0 mph 29.9 mph N/A   Mostly Cloudy
1:35 PM 26.6 °F 11.4 °F 10.4 °F 51% 30.02 in 10.0 mi WNW 25.3 mph 32.2 mph N/A   Scattered Clouds
1:55 PM 26.6 °F 12.0 °F 12.2 °F 55% 30.02 in 10.0 mi West 23.0 mph 28.8 mph N/A   Mostly Cloudy
2:15 PM 26.6 °F 13.1 °F 12.2 °F 55% 30.01 in 10.0 mi West 19.6 mph 31.1 mph N/A   Mostly Cloudy
2:35 PM 26.6 °F 11.4 °F 10.4 °F 51% 30.01 in 10.0 mi WNW 25.3 mph - N/A   Mostly Cloudy
2:55 PM 26.6 °F 12.4 °F 10.4 °F 51% 30.00 in 10.0 mi WNW 21.9 mph 29.9 mph N/A   Mostly Cloudy
3:15 PM 28.4 °F 14.7 °F 10.4 °F 47% 30.00 in 10.0 mi West 21.9 mph - N/A   Scattered Clouds
3:35 PM 26.6 °F 12.7 °F 10.4 °F 51% 30.00 in 10.0 mi WNW 20.7 mph 32.2 mph N/A   Mostly Cloudy
3:55 PM 26.6 °F 12.0 °F 10.4 °F 51% 30.00 in 10.0 mi WNW 23.0 mph 27.6 mph N/A   Mostly Cloudy
4:15 PM 26.6 °F 11.7 °F 10.4 °F 51% 30.00 in 10.0 mi West 24.2 mph 29.9 mph N/A   Mostly Cloudy
4:35 PM 26.6 °F 11.7 °F 10.4 °F 51% 29.99 in 10.0 mi NW 24.2 mph 27.6 mph N/A   Mostly Cloudy
4:55 PM 26.6 °F 12.7 °F 10.4 °F 51% 30.00 in 10.0 mi WNW 20.7 mph 27.6 mph N/A   Mostly Cloudy
5:15 PM 26.6 °F 12.4 °F 8.6 °F 47% 30.00 in 10.0 mi WNW 21.9 mph - N/A   Mostly Cloudy
5:35 PM 26.6 °F 12.0 °F 10.4 °F 51% 29.99 in 10.0 mi WNW 23.0 mph 29.9 mph N/A   Mostly Cloudy
5:55 PM 26.6 °F 12.4 °F 10.4 °F 51% 30.00 in 10.0 mi WNW 21.9 mph 33.4 mph N/A   Mostly Cloudy
6:15 PM 24.8 °F 9.6 °F 8.6 °F 50% 30.00 in 10.0 mi WNW 23.0 mph 28.8 mph N/A   Mostly Cloudy
6:35 PM 24.8 °F 9.3 °F 10.4 °F 54% 30.00 in 10.0 mi WNW 24.2 mph 28.8 mph N/A   Mostly Cloudy
6:55 PM 24.8 °F 10.3 °F 10.4 °F 54% 30.00 in 10.0 mi WNW 20.7 mph 24.2 mph N/A   Mostly Cloudy
7:15 PM 24.8 °F 10.7 °F 8.6 °F 50% 30.00 in 10.0 mi NW 19.6 mph 27.6 mph N/A   Mostly Cloudy
7:35 PM 24.8 °F 10.0 °F 8.6 °F 50% 30.01 in 10.0 mi WNW 21.9 mph 26.5 mph N/A   Scattered Clouds
7:55 PM 23.0 °F 9.6 °F 8.6 °F 54% 30.01 in 10.0 mi WNW 16.1 mph - N/A   Partly Cloudy
8:15 PM 23.0 °F 9.6 °F 8.6 °F 54% 30.01 in 10.0 mi NW 16.1 mph 21.9 mph N/A   Mostly Cloudy
8:35 PM 23.0 °F 9.6 °F 8.6 °F 54% 30.00 in 10.0 mi NW 16.1 mph 23.0 mph N/A   Overcast
8:55 PM 23.0 °F 10.6 °F 10.4 °F 59% 30.01 in 10.0 mi NW 13.8 mph - N/A   Overcast
9:15 PM 23.0 °F 10.6 °F 12.2 °F 63% 30.01 in 10.0 mi NW 13.8 mph 20.7 mph N/A   Overcast
9:35 PM 23.0 °F 11.1 °F 10.4 °F 59% 30.00 in 10.0 mi NW 12.7 mph - N/A   Overcast
9:55 PM 23.0 °F 11.7 °F 10.4 °F 59% 30.00 in 10.0 mi NW 11.5 mph - N/A   Overcast
10:15 PM 23.0 °F 10.1 °F 12.2 °F 63% 30.00 in 10.0 mi WNW 15.0 mph - N/A   Overcast
10:35 PM 21.2 °F 6.8 °F 12.2 °F 68% 30.00 in 10.0 mi NW 17.3 mph 21.9 mph N/A   Overcast
10:55 PM 21.2 °F 8.3 °F 12.2 °F 68% 29.99 in 10.0 mi NW 13.8 mph - N/A   Overcast
11:15 PM 21.2 °F 8.3 °F 10.4 °F 63% 29.99 in 10.0 mi WNW 13.8 mph - N/A   Overcast
11:35 PM 21.2 °F 8.3 °F 10.4 °F 63% 29.99 in 10.0 mi NW 13.8 mph - N/A   Overcast
11:55 PM 21.2 °F 8.9 °F 10.4 °F 63% 29.99 in 10.0 mi NW 12.7 mph - N/A   Overcast